Burlington, VT

9:08 AM EDT on July 25, 2017 (GMT -0400)
Burlington International

Weather History for KBTV - April, 2014

Change the Weather History Date:

Sunday, April 6, 2014

  Actual Average Record
Temperature  
Mean Temperature 42 °F 40 °F  
Max Temperature 53 °F 50 °F 77 °F (1928)
Min Temperature 31 °F 31 °F 10 °F (1943)
Degree Days  
Heating Degree Days 23 25  
Month to date heating degree days 156 156  
Since 1 July heating degree days 6943 6620  
Cooling Degree Days 0 0  
Month to date cooling degree days 0 0  
Year to date cooling degree days 0 0  
Moisture  
Dew Point 21 °F    
Average Humidity 48    
Maximum Humidity 69    
Minimum Humidity 26    
Precipitation  
Precipitation 0.00 in 0.08 in 0.82 in (2017)
Month to date precipitation 0.09 0.52  
Year to date precipitation 6.25 6.56  
Snow  
Snow 0.00 in 0.20 in 4.10 in (1967)
Month to date snowfall 0.0 1.4  
Since 1 July snowfall 83.7 78.0  
Snow Depth 0.00 in    
Sea Level Pressure  
Sea Level Pressure 30.11 in    
Wind  
Wind Speed 6 mph (West)    
Max Wind Speed 16 mph    
Max Gust Speed 24 mph    
Visibility 10 miles    
Events      
T = Trace of Precipitation, MM = Missing Value Source: NWS Daily Summary

Daily Weather History Graph

Daily Weather History Graph

Search for Another Location

Airport or City:

Trip Planner

Search our weather history database for the weather conditions in past years. The results will help you decide how hot, cold, wet, or windy it might be!

Date:

Astronomy

Apr. 06, 2014 Rise Set
Actual Time 6:24 AM EDT 7:26 PM EDT
Civil Twilight 5:54 AM EDT 7:55 PM EDT
Nautical Twilight 5:19 AM EDT 8:31 PM EDT
Astronomical Twilight 4:42 AM EDT 9:08 PM EDT
Moon 11:15 AM EDT (4/6) 1:27 AM EDT (4/6)
Length of Visible Light 14h 00m
Length of Day
13h 01m
Waxing Crescent, 43% of the Moon is Illuminated
Apr 6
Waxing Crescent
Apr 7
First Quarter
Apr 15
Full
Apr 22
Last Quarter
Apr 29
New

Hourly Weather History & Observations

Time (EDT) Temp. Windchill Dew Point Humidity Pressure Visibility Wind Dir Wind Speed Gust Speed Precip Events Conditions
12:54 AM 35.1 °F 29.3 °F 21.9 °F 59% 30.00 in 10.0 mi WNW 6.9 mph - N/A   Overcast
1:54 AM 35.1 °F 25.5 °F 21.9 °F 59% 30.02 in 10.0 mi WNW 15.0 mph 24.2 mph N/A   Overcast
2:54 AM 35.1 °F 27.4 °F 21.9 °F 59% 30.04 in 10.0 mi WNW 10.4 mph - N/A   Overcast
3:54 AM 35.1 °F 27.9 °F 21.0 °F 57% 30.05 in 10.0 mi WNW 9.2 mph - N/A   Overcast
4:54 AM 34.0 °F 27.2 °F 21.0 °F 59% 30.08 in 10.0 mi NW 8.1 mph - N/A   Overcast
5:54 AM 34.0 °F 25.5 °F 19.0 °F 54% 30.10 in 10.0 mi WNW 11.5 mph 20.7 mph N/A   Mostly Cloudy
6:54 AM 34.0 °F 29.8 °F 19.0 °F 54% 30.12 in 10.0 mi WNW 4.6 mph - N/A   Mostly Cloudy
7:54 AM 35.1 °F 28.6 °F 21.0 °F 57% 30.14 in 10.0 mi WNW 8.1 mph - N/A   Mostly Cloudy
8:54 AM 35.1 °F 29.3 °F 21.9 °F 59% 30.15 in 10.0 mi WSW 6.9 mph - N/A   Mostly Cloudy
9:54 AM 37.9 °F 32.1 °F 21.0 °F 51% 30.15 in 10.0 mi West 8.1 mph - N/A   Scattered Clouds
10:54 AM 39.9 °F 33.9 °F 21.0 °F 47% 30.15 in 10.0 mi WNW 9.2 mph - N/A   Partly Cloudy
11:54 AM 43.0 °F 38.2 °F 19.9 °F 40% 30.13 in 10.0 mi West 8.1 mph - N/A   Partly Cloudy
12:54 PM 46.0 °F 41.9 °F 19.0 °F 34% 30.12 in 10.0 mi West 8.1 mph - N/A   Partly Cloudy
1:54 PM 48.0 °F - 19.0 °F 32% 30.12 in 10.0 mi SW 9.2 mph - N/A   Clear
2:54 PM 48.9 °F - 18.0 °F 29% 30.11 in 10.0 mi Variable 6.9 mph - N/A   Clear
3:54 PM 51.1 °F - 18.0 °F 27% 30.10 in 10.0 mi WNW 3.5 mph - N/A   Clear
4:54 PM 52.0 °F - 19.0 °F 27% 30.09 in 10.0 mi West 3.5 mph - N/A   Clear
5:54 PM 52.0 °F - 19.9 °F 28% 30.08 in 10.0 mi South 4.6 mph - N/A   Clear
6:54 PM 50.0 °F - 23.0 °F 35% 30.09 in 10.0 mi South 6.9 mph - N/A   Clear
7:54 PM 46.9 °F - 23.0 °F 39% 30.10 in 10.0 mi Calm Calm - N/A   Clear
8:54 PM 45.0 °F 43.5 °F 23.0 °F 42% 30.13 in 10.0 mi NNW 3.5 mph - N/A   Clear
9:54 PM 37.0 °F - 25.0 °F 62% 30.15 in 10.0 mi Calm Calm - N/A   Clear
10:54 PM 36.0 °F - 25.0 °F 64% 30.17 in 10.0 mi Calm Calm - N/A   Clear
11:54 PM 33.1 °F 30.0 °F 24.1 °F 70% 30.17 in 10.0 mi ESE 3.5 mph - N/A   Clear